Regional Weather Roundup
Issued by NWS

Home | Current Version | Previous Version | Graphics & Text | Print | Product List | Glossary On
Versions: 1 2 3 4 5 6 7 8 9 10 11 12 13 14 15 16 17 18 19 20 21 22 23 24 25 26 27 28 29 30 31 32 33 34 35 36 37 38 39 40 41 42 43 44 45 46 47 48 49 50
000
ASUS45 KBOI 010310
RWRID
WEATHER ROUNDUP FOR IDAHO
NATIONAL WEATHER SERVICE BOISE ID
800 PM MST SAT JAN 31 2015

NOTE: "FAIR" INDICATES FEW OR NO CLOUDS BELOW 12000 FEET
WITH NO SIGNIFICANT WEATHER AND/OR OBSTRUCTIONS TO VISIBILITY

IDZ012-014-010400-
SOUTHWEST IDAHO


CITY           SKY/WX    TMP DP  RH WIND       PRES   REMARKS
BOISE          CLEAR     40  30  67 NW5       30.16S
CALDWELL       CLEAR     36  25  64 CALM      30.18S
MOUNTAIN HOME  CLEAR     40  29  67 NW10      30.16R WCI  33
$$

IDZ016-017-010400-
SOUTHCENTRAL IDAHO


CITY           SKY/WX    TMP DP  RH WIND       PRES   REMARKS
BURLEY         CLEAR     31  26  82 NW3       30.16R
JEROME         CLEAR     31  27  85 NE8       30.16R WCI  23
TWIN FALLS     CLEAR     38  27  64 SW13      30.15R WCI  30
$$

IDZ019>023-010400-
SOUTHEAST IDAHO


CITY           SKY/WX    TMP DP  RH WIND       PRES   REMARKS
IDAHO FALLS    PTCLDY    27  23  85 N5        30.14R WCI  22
POCATELLO      CLEAR     29  27  92 NW3       30.15R
REXBURG        MOCLDY    28  24  85 CALM      30.13R
$$

IDZ006-010-011-018-031-032-010400-
CENTRAL IDAHO MOUNTAINS


CITY           SKY/WX    TMP DP  RH WIND       PRES   REMARKS
MCCALL         PTCLDY    26  16  65 E3        30.14R
HAILEY         FOG       21  19  93 CALM      30.14R VSB 1/4
STANLEY          N/A     12   4  70 CALM      30.15R
SALMON         CLOUDY    19  16  86 CALM      30.20F
CHALLIS        CLEAR     24  20  84 CALM      30.14S
$$

IDZ002-004-006-007-026-010400-
NORTHERN IDAHO


CITY           SKY/WX    TMP DP  RH WIND       PRES   REMARKS
LEWISTON       CLOUDY    35  30  82 SW3       30.31R
LOWELL           N/A     32  28  85 CALM      30.32S
COEUR D`ALENE  CLOUDY    30  27  86 CALM      30.27S
MULLAN PASS    HAZE      23  18  81 CALM      30.11R VSB 3/4
$$



USA.gov is the U.S. government's official web portal to all federal, state and local government web resources and services.